Time,TemperatureF,DewpointF,PressureIn,WindDirection,WindDirectionDegrees,WindSpeedMPH,WindSpeedGustMPH,Humidity,HourlyPrecipIn,Conditions,Clouds,dailyrainin,SoftwareType,DateUTC
2013-10-07 00:01:00,73.9,72.0,29.85,South,180,0.0,0.0,94,0.00,,,0.00,WUHU21636XXSP,2013-10-07 04:01:00,
2013-10-07 00:03:00,73.9,72.0,29.85,South,180,0.0,0.0,94,0.00,,,0.00,WUHU21636XXSP,2013-10-07 04:03:00,
2013-10-07 00:08:00,73.8,71.8,29.85,South,180,0.0,0.0,94,0.00,,,0.00,WUHU21636XXSP,2013-10-07 04:08:00,
2013-10-07 00:13:00,73.8,71.8,29.85,South,180,0.0,0.0,94,0.00,,,0.00,WUHU21636XXSP,2013-10-07 04:13:00,
2013-10-07 00:18:00,73.8,71.8,29.85,South,180,0.0,0.0,94,0.00,,,0.00,WUHU21636XXSP,2013-10-07 04:18:00,
2013-10-07 00:23:00,73.8,71.8,29.85,South,180,0.0,0.0,95,0.00,,,0.00,WUHU21636XXSP,2013-10-07 04:23:00,
2013-10-07 00:28:00,73.6,71.6,29.84,South,180,0.0,0.0,94,0.00,,,0.00,WUHU21636XXSP,2013-10-07 04:28:00,
2013-10-07 00:33:00,73.6,71.6,29.84,South,180,0.0,0.0,94,0.00,,,0.00,WUHU21636XXSP,2013-10-07 04:33:00,
2013-10-07 00:38:00,73.2,71.2,29.84,South,180,0.0,0.0,94,0.00,,,0.00,WUHU21636XXSP,2013-10-07 04:38:00,
2013-10-07 00:43:00,73.0,71.1,29.84,South,180,0.0,0.0,94,0.00,,,0.00,WUHU21636XXSP,2013-10-07 04:43:00,
2013-10-07 00:48:00,73.0,71.1,29.84,South,180,0.0,0.0,94,0.00,,,0.00,WUHU21636XXSP,2013-10-07 04:48:00,
2013-10-07 00:53:00,73.0,71.1,29.84,South,180,0.0,0.0,94,0.00,,,0.00,WUHU21636XXSP,2013-10-07 04:53:00,
2013-10-07 00:58:00,72.9,70.9,29.84,South,180,0.0,0.0,94,0.00,,,0.00,WUHU21636XXSP,2013-10-07 04:58:00,
2013-10-07 01:03:00,72.7,70.7,29.84,South,180,0.0,0.0,94,0.00,,,0.00,WUHU21636XXSP,2013-10-07 05:03:00,
2013-10-07 01:08:00,72.7,70.7,29.84,South,180,0.0,0.0,94,0.00,,,0.00,WUHU21636XXSP,2013-10-07 05:08:00,
2013-10-07 01:13:00,72.5,70.5,29.84,South,180,0.0,0.0,94,0.00,,,0.00,WUHU21636XXSP,2013-10-07 05:13:00,
2013-10-07 01:18:00,72.7,70.7,29.83,South,180,0.0,0.0,95,0.00,,,0.00,WUHU21636XXSP,2013-10-07 05:18:00,
2013-10-07 01:23:00,72.7,70.7,29.83,South,180,0.0,0.0,95,0.00,,,0.00,WUHU21636XXSP,2013-10-07 05:23:00,
2013-10-07 01:28:00,72.5,70.9,29.83,South,180,0.0,0.0,95,0.00,,,0.00,WUHU21636XXSP,2013-10-07 05:28:00,
2013-10-07 01:33:00,72.3,70.7,29.83,South,180,0.0,0.0,95,0.00,,,0.00,WUHU21636XXSP,2013-10-07 05:33:00,
2013-10-07 01:38:00,72.3,70.7,29.83,South,180,0.0,0.0,95,0.00,,,0.00,WUHU21636XXSP,2013-10-07 05:38:00,
2013-10-07 01:43:00,72.3,70.7,29.83,South,180,0.0,0.0,95,0.00,,,0.00,WUHU21636XXSP,2013-10-07 05:43:00,
2013-10-07 01:48:00,72.5,70.9,29.83,South,180,0.0,0.0,95,0.00,,,0.00,WUHU21636XXSP,2013-10-07 05:48:00,
2013-10-07 01:53:00,72.3,70.7,29.82,South,180,0.0,0.0,95,0.00,,,0.00,WUHU21636XXSP,2013-10-07 05:53:00,
2013-10-07 01:58:00,72.3,70.7,29.82,South,180,0.0,0.0,95,0.00,,,0.00,WUHU21636XXSP,2013-10-07 05:58:00,
2013-10-07 02:03:00,72.1,70.5,29.82,South,180,0.0,0.0,95,0.00,,,0.00,WUHU21636XXSP,2013-10-07 06:03:00,
2013-10-07 02:08:00,72.1,70.5,29.82,South,180,0.0,0.0,95,0.00,,,0.00,WUHU21636XXSP,2013-10-07 06:08:00,
2013-10-07 02:13:00,72.1,70.5,29.82,South,180,0.0,0.0,95,0.00,,,0.00,WUHU21636XXSP,2013-10-07 06:13:00,
2013-10-07 02:18:00,72.1,70.5,29.82,South,180,0.0,0.0,95,0.00,,,0.00,WUHU21636XXSP,2013-10-07 06:18:00,
2013-10-07 02:23:00,72.1,70.5,29.82,South,180,0.0,0.0,95,0.00,,,0.00,WUHU21636XXSP,2013-10-07 06:23:00,
2013-10-07 02:28:00,72.1,70.5,29.82,South,180,0.0,0.0,95,0.00,,,0.00,WUHU21636XXSP,2013-10-07 06:28:00,
2013-10-07 02:32:00,72.1,70.5,29.82,South,180,0.0,0.0,95,0.00,,,0.00,WUHU21636XXSP,2013-10-07 06:32:00,
2013-10-07 02:37:00,72.1,70.5,29.82,South,180,0.0,1.5,95,0.00,,,0.00,WUHU21636XXSP,2013-10-07 06:37:00,
2013-10-07 02:42:00,72.1,70.5,29.82,South,180,0.0,1.5,95,0.00,,,0.00,WUHU21636XXSP,2013-10-07 06:42:00,
2013-10-07 02:47:00,72.0,70.3,29.81,South,180,0.0,0.0,95,0.00,,,0.00,WUHU21636XXSP,2013-10-07 06:47:00,
2013-10-07 02:52:00,72.0,70.3,29.81,South,180,0.0,0.0,95,0.00,,,0.00,WUHU21636XXSP,2013-10-07 06:52:00,
2013-10-07 02:57:00,72.0,70.3,29.81,South,180,0.0,0.0,95,0.00,,,0.00,WUHU21636XXSP,2013-10-07 06:57:00,
2013-10-07 03:02:00,72.0,70.3,29.81,South,180,0.0,0.0,95,0.00,,,0.00,WUHU21636XXSP,2013-10-07 07:02:00,
2013-10-07 03:07:00,72.0,70.3,29.81,South,180,0.0,0.0,95,0.00,,,0.00,WUHU21636XXSP,2013-10-07 07:07:00,
2013-10-07 03:12:00,72.0,70.3,29.80,South,180,0.0,0.0,95,0.00,,,0.00,WUHU21636XXSP,2013-10-07 07:12:00,
2013-10-07 03:17:00,71.8,70.2,29.81,South,180,0.0,0.0,95,0.00,,,0.00,WUHU21636XXSP,2013-10-07 07:17:00,
2013-10-07 03:22:00,71.8,70.2,29.80,South,180,0.0,0.0,95,0.00,,,0.00,WUHU21636XXSP,2013-10-07 07:22:00,
2013-10-07 03:27:00,71.6,70.0,29.80,South,180,0.0,0.0,95,0.00,,,0.00,WUHU21636XXSP,2013-10-07 07:27:00,
2013-10-07 03:32:00,71.4,69.8,29.80,South,180,0.0,0.0,95,0.00,,,0.00,WUHU21636XXSP,2013-10-07 07:32:00,
2013-10-07 03:37:00,71.4,69.8,29.80,South,180,0.0,0.0,95,0.00,,,0.00,WUHU21636XXSP,2013-10-07 07:37:00,
2013-10-07 03:42:00,71.4,69.8,29.80,South,180,0.0,0.0,95,0.00,,,0.00,WUHU21636XXSP,2013-10-07 07:42:00,
2013-10-07 03:48:00,71.4,69.8,29.79,South,180,0.0,0.0,95,0.00,,,0.00,WUHU21636XXSP,2013-10-07 07:48:00,
2013-10-07 03:53:00,71.2,69.6,29.79,South,180,0.0,0.0,95,0.00,,,0.00,WUHU21636XXSP,2013-10-07 07:53:00,
2013-10-07 03:58:00,71.4,69.8,29.79,South,180,0.0,0.0,95,0.00,,,0.00,WUHU21636XXSP,2013-10-07 07:58:00,
2013-10-07 04:03:00,71.6,70.0,29.79,South,180,0.0,0.0,95,0.00,,,0.00,WUHU21636XXSP,2013-10-07 08:03:00,
2013-10-07 04:08:00,71.4,69.8,29.79,South,180,0.0,0.0,95,0.00,,,0.00,WUHU21636XXSP,2013-10-07 08:08:00,
2013-10-07 04:13:00,71.4,69.8,29.79,South,180,0.0,0.0,95,0.00,,,0.00,WUHU21636XXSP,2013-10-07 08:13:00,
2013-10-07 04:18:00,71.2,69.6,29.79,South,180,0.0,0.0,95,0.00,,,0.00,WUHU21636XXSP,2013-10-07 08:18:00,
2013-10-07 04:23:00,71.2,69.6,29.78,South,180,0.0,0.0,95,0.00,,,0.00,WUHU21636XXSP,2013-10-07 08:23:00,
2013-10-07 04:28:00,71.1,69.4,29.78,South,180,0.0,0.0,95,0.00,,,0.00,WUHU21636XXSP,2013-10-07 08:28:00,
2013-10-07 04:33:00,70.9,69.3,29.78,South,180,0.0,0.0,95,0.00,,,0.00,WUHU21636XXSP,2013-10-07 08:33:00,
2013-10-07 04:38:00,70.7,69.1,29.78,South,180,0.0,0.0,95,0.00,,,0.00,WUHU21636XXSP,2013-10-07 08:38:00,
2013-10-07 04:43:00,70.7,69.1,29.79,South,180,0.0,0.0,95,0.00,,,0.00,WUHU21636XXSP,2013-10-07 08:43:00,
2013-10-07 04:48:00,70.7,69.1,29.79,South,180,0.0,0.0,95,0.00,,,0.00,WUHU21636XXSP,2013-10-07 08:48:00,
2013-10-07 04:53:00,70.7,69.1,29.79,South,180,0.0,0.0,96,0.00,,,0.00,WUHU21636XXSP,2013-10-07 08:53:00,
2013-10-07 04:58:00,70.5,68.9,29.79,South,180,0.0,0.0,95,0.00,,,0.00,WUHU21636XXSP,2013-10-07 08:58:00,
2013-10-07 05:03:00,70.5,68.9,29.79,South,180,0.0,0.0,95,0.00,,,0.00,WUHU21636XXSP,2013-10-07 09:03:00,
2013-10-07 05:08:00,70.5,68.9,29.79,South,180,0.0,0.0,95,0.00,,,0.00,WUHU21636XXSP,2013-10-07 09:08:00,
2013-10-07 05:13:00,70.5,68.9,29.79,South,180,0.0,0.0,95,0.00,,,0.00,WUHU21636XXSP,2013-10-07 09:13:00,
2013-10-07 05:18:00,70.5,68.9,29.79,South,180,0.0,0.0,95,0.00,,,0.00,WUHU21636XXSP,2013-10-07 09:18:00,
2013-10-07 05:23:00,70.5,68.9,29.79,South,180,0.0,0.0,95,0.00,,,0.00,WUHU21636XXSP,2013-10-07 09:23:00,
2013-10-07 05:28:00,70.5,68.9,29.79,South,180,0.0,0.0,95,0.00,,,0.00,WUHU21636XXSP,2013-10-07 09:28:00,
2013-10-07 05:33:00,70.5,68.9,29.79,South,180,0.0,0.0,95,0.00,,,0.00,WUHU21636XXSP,2013-10-07 09:33:00,
2013-10-07 05:38:00,70.7,69.4,29.79,South,180,0.0,0.0,96,0.00,,,0.00,WUHU21636XXSP,2013-10-07 09:38:00,
2013-10-07 05:43:00,70.7,69.4,29.79,South,180,0.0,0.0,96,0.00,,,0.00,WUHU21636XXSP,2013-10-07 09:43:00,
2013-10-07 05:48:00,70.7,69.4,29.79,South,180,0.0,0.0,96,0.00,,,0.00,WUHU21636XXSP,2013-10-07 09:48:00,
2013-10-07 05:53:00,70.7,69.4,29.79,South,180,0.0,0.0,96,0.00,,,0.00,WUHU21636XXSP,2013-10-07 09:53:00,
2013-10-07 05:58:00,70.5,68.9,29.79,South,180,0.0,0.0,95,0.00,,,0.00,WUHU21636XXSP,2013-10-07 09:58:00,
2013-10-07 06:03:00,70.5,68.9,29.79,South,180,0.0,0.0,95,0.00,,,0.00,WUHU21636XXSP,2013-10-07 10:03:00,
2013-10-07 06:08:00,70.5,68.9,29.79,South,180,0.0,0.0,95,0.00,,,0.00,WUHU21636XXSP,2013-10-07 10:08:00,
2013-10-07 06:13:00,70.7,69.4,29.79,South,180,0.0,0.0,96,0.00,,,0.00,WUHU21636XXSP,2013-10-07 10:13:00,
2013-10-07 06:18:00,70.9,69.6,29.79,South,180,0.0,0.0,96,0.00,,,0.00,WUHU21636XXSP,2013-10-07 10:18:00,
2013-10-07 06:23:00,70.7,69.4,29.79,South,180,0.0,0.0,96,0.00,,,0.00,WUHU21636XXSP,2013-10-07 10:23:00,
2013-10-07 06:28:00,70.5,68.9,29.79,South,180,0.0,0.0,95,0.00,,,0.00,WUHU21636XXSP,2013-10-07 10:28:00,
2013-10-07 06:33:00,70.5,68.9,29.79,South,180,0.0,0.0,95,0.00,,,0.00,WUHU21636XXSP,2013-10-07 10:33:00,
2013-10-07 06:38:00,70.3,68.7,29.79,South,180,0.0,0.0,95,0.00,,,0.00,WUHU21636XXSP,2013-10-07 10:38:00,
2013-10-07 06:43:00,70.5,68.9,29.79,South,180,0.0,0.0,95,0.00,,,0.00,WUHU21636XXSP,2013-10-07 10:43:00,
2013-10-07 06:48:00,70.5,68.9,29.79,South,180,0.0,0.0,95,0.00,,,0.00,WUHU21636XXSP,2013-10-07 10:48:00,
2013-10-07 06:53:00,70.5,68.9,29.79,South,180,0.0,0.0,95,0.00,,,0.00,WUHU21636XXSP,2013-10-07 10:53:00,
2013-10-07 06:58:00,70.7,69.4,29.79,South,180,0.0,0.0,96,0.00,,,0.00,WUHU21636XXSP,2013-10-07 10:58:00,
2013-10-07 07:03:00,70.5,68.9,29.79,South,180,0.0,0.0,95,0.00,,,0.00,WUHU21636XXSP,2013-10-07 11:03:00,
2013-10-07 07:08:00,70.5,68.9,29.79,South,180,0.0,0.0,95,0.00,,,0.00,WUHU21636XXSP,2013-10-07 11:08:00,
2013-10-07 07:13:00,70.5,68.9,29.78,South,180,0.0,0.0,95,0.00,,,0.00,WUHU21636XXSP,2013-10-07 11:13:00,
2013-10-07 07:17:00,70.9,69.6,29.79,South,180,0.0,0.0,96,0.00,,,0.00,WUHU21636XXSP,2013-10-07 11:17:00,
2013-10-07 07:22:00,70.9,69.6,29.79,South,180,0.0,0.0,96,0.00,,,0.00,WUHU21636XXSP,2013-10-07 11:22:00,
2013-10-07 07:27:00,70.9,69.6,29.79,South,180,0.0,0.0,96,0.00,,,0.00,WUHU21636XXSP,2013-10-07 11:27:00,
2013-10-07 07:32:00,71.1,69.8,29.79,South,180,0.0,0.0,96,0.00,,,0.00,WUHU21636XXSP,2013-10-07 11:32:00,
2013-10-07 07:38:00,71.2,70.0,29.79,South,180,0.0,0.0,96,0.00,,,0.00,WUHU21636XXSP,2013-10-07 11:38:00,
2013-10-07 07:43:00,71.2,70.0,29.79,South,180,0.0,0.0,96,0.00,,,0.00,WUHU21636XXSP,2013-10-07 11:43:00,
2013-10-07 07:48:00,71.2,70.0,29.79,South,180,0.0,0.0,96,0.00,,,0.00,WUHU21636XXSP,2013-10-07 11:48:00,
2013-10-07 07:53:00,71.2,70.0,29.79,South,180,0.0,0.0,96,0.00,,,0.00,WUHU21636XXSP,2013-10-07 11:53:00,
2013-10-07 07:58:00,71.6,70.3,29.79,South,180,0.0,0.0,96,0.00,,,0.00,WUHU21636XXSP,2013-10-07 11:58:00,
2013-10-07 08:03:00,71.8,70.2,29.80,South,180,0.0,0.0,96,0.00,,,0.00,WUHU21636XXSP,2013-10-07 12:03:00,
2013-10-07 08:08:00,72.1,70.5,29.80,South,180,0.0,0.0,95,0.00,,,0.00,WUHU21636XXSP,2013-10-07 12:08:00,
2013-10-07 08:13:00,72.3,70.7,29.80,South,180,0.0,0.0,95,0.00,,,0.00,WUHU21636XXSP,2013-10-07 12:13:00,
2013-10-07 08:18:00,72.9,71.2,29.80,South,180,0.0,0.0,95,0.00,,,0.00,WUHU21636XXSP,2013-10-07 12:18:00,
2013-10-07 08:23:00,73.0,71.4,29.80,SSE,157,0.0,2.5,95,0.00,,,0.00,WUHU21636XXSP,2013-10-07 12:23:00,
2013-10-07 08:28:00,73.2,71.6,29.81,SSE,157,0.0,2.5,95,0.00,,,0.00,WUHU21636XXSP,2013-10-07 12:28:00,
2013-10-07 08:33:00,73.9,72.3,29.81,SSE,157,0.0,0.0,95,0.00,,,0.00,WUHU21636XXSP,2013-10-07 12:33:00,
2013-10-07 08:38:00,74.3,72.7,29.81,South,180,0.0,0.0,95,0.00,,,0.00,WUHU21636XXSP,2013-10-07 12:38:00,
2013-10-07 08:43:00,74.7,73.0,29.81,South,180,0.0,0.0,95,0.00,,,0.00,WUHU21636XXSP,2013-10-07 12:43:00,
2013-10-07 08:48:00,75.2,73.6,29.81,South,180,0.0,0.0,95,0.00,,,0.00,WUHU21636XXSP,2013-10-07 12:48:00,
2013-10-07 08:53:00,75.7,74.5,29.81,SE,135,0.0,0.0,96,0.00,,,0.00,WUHU21636XXSP,2013-10-07 12:53:00,
2013-10-07 08:58:00,75.9,74.7,29.81,SSE,157,0.0,0.0,96,0.00,,,0.00,WUHU21636XXSP,2013-10-07 12:58:00,
2013-10-07 09:03:00,76.6,75.0,29.81,SSE,157,0.0,0.0,95,0.00,,,0.00,WUHU21636XXSP,2013-10-07 13:03:00,
2013-10-07 09:08:00,76.8,75.2,29.81,SSE,157,0.0,0.0,95,0.00,,,0.00,WUHU21636XXSP,2013-10-07 13:08:00,
2013-10-07 09:13:00,77.2,75.6,29.82,SSE,157,0.0,0.0,94,0.00,,,0.00,WUHU21636XXSP,2013-10-07 13:13:00,
2013-10-07 09:18:00,77.9,75.9,29.82,SSE,157,0.0,0.0,94,0.00,,,0.00,WUHU21636XXSP,2013-10-07 13:18:00,
2013-10-07 09:23:00,78.1,75.6,29.82,SSE,157,1.4,1.4,92,0.00,,,0.00,WUHU21636XXSP,2013-10-07 13:23:00,
2013-10-07 09:28:00,78.4,75.6,29.82,SSE,157,0.0,3.9,91,0.00,,,0.00,WUHU21636XXSP,2013-10-07 13:28:00,
2013-10-07 09:33:00,78.8,75.7,29.82,ENE,67,0.0,5.1,90,0.00,,,0.00,WUHU21636XXSP,2013-10-07 13:33:00,
2013-10-07 09:38:00,79.0,75.4,29.82,WSW,247,0.0,5.1,89,0.00,,,0.00,WUHU21636XXSP,2013-10-07 13:38:00,
2013-10-07 09:43:00,79.2,75.6,29.82,SSW,202,0.0,5.2,89,0.00,,,0.00,WUHU21636XXSP,2013-10-07 13:43:00,
2013-10-07 09:48:00,79.5,75.9,29.82,WSW,247,0.0,5.2,89,0.00,,,0.00,WUHU21636XXSP,2013-10-07 13:48:00,
2013-10-07 09:53:00,80.2,76.6,29.82,SSW,202,0.0,0.0,89,0.00,,,0.00,WUHU21636XXSP,2013-10-07 13:53:00,
2013-10-07 09:58:00,80.8,76.5,29.82,ESE,112,0.0,2.0,87,0.00,,,0.00,WUHU21636XXSP,2013-10-07 13:58:00,
2013-10-07 10:03:00,81.6,77.0,29.82,NE,45,0.0,4.8,86,0.00,,,0.00,WUHU21636XXSP,2013-10-07 14:03:00,
2013-10-07 10:08:00,81.7,77.1,29.82,WSW,247,0.0,4.8,86,0.00,,,0.00,WUHU21636XXSP,2013-10-07 14:08:00,
2013-10-07 10:13:00,81.6,76.4,29.82,SE,135,0.0,2.7,84,0.00,,,0.00,WUHU21636XXSP,2013-10-07 14:13:00,
2013-10-07 10:18:00,81.8,75.9,29.82,SE,135,0.0,2.4,82,0.00,,,0.00,WUHU21636XXSP,2013-10-07 14:18:00,
2013-10-07 10:23:00,81.6,75.7,29.82,East,90,0.0,2.4,82,0.00,,,0.00,WUHU21636XXSP,2013-10-07 14:23:00,
2013-10-07 10:28:00,81.2,74.9,29.82,East,90,0.0,0.0,81,0.00,,,0.00,WUHU21636XXSP,2013-10-07 14:28:00,
2013-10-07 10:33:00,81.4,75.1,29.82,West,270,0.0,0.0,81,0.00,,,0.00,WUHU21636XXSP,2013-10-07 14:33:00,
2013-10-07 10:38:00,81.9,75.6,29.81,West,270,0.0,0.0,81,0.00,,,0.00,WUHU21636XXSP,2013-10-07 14:38:00,
2013-10-07 10:43:00,82.4,75.4,29.81,SE,135,0.0,2.7,79,0.00,,,0.00,WUHU21636XXSP,2013-10-07 14:43:00,
2013-10-07 10:48:00,82.9,74.7,29.81,SSW,202,0.0,3.8,76,0.00,,,0.00,WUHU21636XXSP,2013-10-07 14:48:00,
2013-10-07 10:53:00,81.8,74.4,29.81,SSE,157,0.0,3.8,78,0.00,,,0.00,WUHU21636XXSP,2013-10-07 14:53:00,
2013-10-07 10:58:00,81.4,74.1,29.80,East,90,0.0,1.4,78,0.00,,,0.00,WUHU21636XXSP,2013-10-07 14:58:00,
2013-10-07 11:03:00,83.0,75.2,29.80,SE,135,0.0,2.7,77,0.00,,,0.00,WUHU21636XXSP,2013-10-07 15:03:00,
2013-10-07 11:08:00,84.4,75.8,29.80,SSE,157,0.0,2.7,75,0.00,,,0.00,WUHU21636XXSP,2013-10-07 15:08:00,
2013-10-07 11:13:00,84.5,74.3,29.80,South,180,0.0,0.0,71,0.00,,,0.00,WUHU21636XXSP,2013-10-07 15:13:00,
2013-10-07 11:18:00,82.3,72.5,29.80,West,270,1.0,3.2,72,0.00,,,0.00,WUHU21636XXSP,2013-10-07 15:18:00,
2013-10-07 11:23:00,80.8,71.5,29.80,WSW,247,0.0,3.7,73,0.00,,,0.00,WUHU21636XXSP,2013-10-07 15:23:00,
2013-10-07 11:28:00,81.1,72.2,29.80,WSW,247,0.0,3.7,74,0.00,,,0.00,WUHU21636XXSP,2013-10-07 15:28:00,
2013-10-07 11:33:00,82.1,72.4,29.79,WSW,247,0.0,3.1,72,0.00,,,0.00,WUHU21636XXSP,2013-10-07 15:33:00,
2013-10-07 11:38:00,84.4,73.4,29.79,WSW,247,0.0,4.8,69,0.00,,,0.00,WUHU21636XXSP,2013-10-07 15:38:00,
2013-10-07 11:43:00,83.9,73.3,29.79,WSW,247,0.0,4.8,70,0.00,,,0.00,WUHU21636XXSP,2013-10-07 15:43:00,
2013-10-07 11:48:00,83.2,72.7,29.79,WSW,247,0.0,0.0,70,0.00,,,0.00,WUHU21636XXSP,2013-10-07 15:48:00,
2013-10-07 11:53:00,81.8,71.7,29.79,WSW,247,0.0,0.0,71,0.00,,,0.00,WUHU21636XXSP,2013-10-07 15:53:00,
2013-10-07 11:58:00,82.1,72.0,29.79,SSW,202,0.0,0.0,71,0.00,,,0.00,WUHU21636XXSP,2013-10-07 15:58:00,
2013-10-07 12:03:00,82.4,72.2,29.79,SSE,157,0.0,0.0,71,0.00,,,0.00,WUHU21636XXSP,2013-10-07 16:03:00,
2013-10-07 12:08:00,82.9,72.7,29.79,SSE,157,0.0,2.9,71,0.00,,,0.00,WUHU21636XXSP,2013-10-07 16:08:00,
2013-10-07 12:13:00,84.2,72.8,29.79,ESE,112,0.0,3.6,68,0.00,,,0.00,WUHU21636XXSP,2013-10-07 16:13:00,
2013-10-07 12:18:00,83.6,71.8,29.78,NW,315,0.0,3.6,67,0.00,,,0.00,WUHU21636XXSP,2013-10-07 16:18:00,
2013-10-07 12:23:00,85.0,73.1,29.78,SE,135,2.9,4.2,67,0.00,,,0.00,WUHU21636XXSP,2013-10-07 16:23:00,
2013-10-07 12:28:00,85.6,73.2,29.78,NE,45,0.0,4.2,66,0.00,,,0.00,WUHU21636XXSP,2013-10-07 16:28:00,
2013-10-07 12:33:00,85.8,73.0,29.78,SW,225,2.4,3.8,65,0.00,,,0.00,WUHU21636XXSP,2013-10-07 16:33:00,
2013-10-07 12:38:00,86.0,73.2,29.78,SE,135,0.0,4.5,65,0.00,,,0.00,WUHU21636XXSP,2013-10-07 16:38:00,
2013-10-07 12:43:00,86.7,72.9,29.78,ENE,67,0.0,4.5,63,0.00,,,0.00,WUHU21636XXSP,2013-10-07 16:43:00,
2013-10-07 12:48:00,88.3,72.4,29.78,NNW,337,0.0,2.0,59,0.00,,,0.00,WUHU21636XXSP,2013-10-07 16:48:00,
2013-10-07 12:53:00,85.6,72.3,29.77,SSE,157,1.1,4.0,64,0.00,,,0.00,WUHU21636XXSP,2013-10-07 16:53:00,
2013-10-07 12:58:00,85.3,72.5,29.77,NW,315,0.0,4.0,65,0.00,,,0.00,WUHU21636XXSP,2013-10-07 16:58:00,
2013-10-07 13:03:00,84.1,71.7,29.77,ENE,67,0.0,4.0,66,0.00,,,0.00,WUHU21636XXSP,2013-10-07 17:03:00,
2013-10-07 13:08:00,83.0,71.6,29.77,ENE,67,0.0,0.0,68,0.00,,,0.00,WUHU21636XXSP,2013-10-07 17:08:00,
2013-10-07 13:13:00,82.4,71.4,29.77,NE,45,0.0,4.6,69,0.00,,,0.00,WUHU21636XXSP,2013-10-07 17:13:00,
2013-10-07 13:18:00,81.9,72.2,29.76,NE,45,0.0,5.9,72,0.00,,,0.00,WUHU21636XXSP,2013-10-07 17:18:00,
2013-10-07 13:23:00,80.7,71.8,29.76,NE,45,3.8,6.4,74,0.00,,,0.00,WUHU21636XXSP,2013-10-07 17:23:00,
2013-10-07 13:28:00,80.3,71.8,29.76,East,90,0.0,6.4,75,0.00,,,0.00,WUHU21636XXSP,2013-10-07 17:28:00,
2013-10-07 13:33:00,79.8,71.7,29.76,NNE,22,0.0,5.2,76,0.00,,,0.00,WUHU21636XXSP,2013-10-07 17:33:00,
2013-10-07 13:38:00,79.2,72.9,29.76,ENE,67,0.0,1.5,81,0.00,,,0.00,WUHU21636XXSP,2013-10-07 17:38:00,
2013-10-07 13:43:00,77.3,72.5,29.76,ENE,67,0.0,0.0,85,0.12,,,0.12,WUHU21636XXSP,2013-10-07 17:43:00,
2013-10-07 13:48:00,76.5,72.3,29.76,ENE,67,0.0,0.0,87,0.12,,,0.12,WUHU21636XXSP,2013-10-07 17:48:00,
2013-10-07 13:53:00,75.6,72.5,29.76,ENE,67,0.0,0.0,90,0.14,,,0.14,WUHU21636XXSP,2013-10-07 17:53:00,
2013-10-07 13:58:00,75.5,73.0,29.76,ENE,67,2.2,3.2,92,0.14,,,0.14,WUHU21636XXSP,2013-10-07 17:58:00,
2013-10-07 14:03:00,75.1,72.3,29.76,NE,45,0.0,7.6,91,0.20,,,0.20,WUHU21636XXSP,2013-10-07 18:03:00,
2013-10-07 14:08:00,74.2,71.7,29.75,NE,45,0.0,7.6,92,0.29,,,0.28,WUHU21636XXSP,2013-10-07 18:08:00,
2013-10-07 14:13:00,73.8,71.6,29.75,NE,45,0.0,1.5,93,0.35,,,0.34,WUHU21636XXSP,2013-10-07 18:13:00,
2013-10-07 14:18:00,74.4,72.2,29.74,NE,45,0.0,1.5,93,0.35,,,0.34,WUHU21636XXSP,2013-10-07 18:18:00,
2013-10-07 14:23:00,75.0,72.8,29.74,NE,45,0.0,1.5,93,0.35,,,0.34,WUHU21636XXSP,2013-10-07 18:23:00,
2013-10-07 14:28:00,75.4,73.2,29.74,NE,45,0.0,0.0,93,0.35,,,0.34,WUHU21636XXSP,2013-10-07 18:28:00,
2013-10-07 14:33:00,76.0,73.8,29.74,NE,45,0.0,0.0,93,0.35,,,0.34,WUHU21636XXSP,2013-10-07 18:33:00,
2013-10-07 14:38:00,76.5,74.3,29.74,NE,45,0.0,0.0,93,0.35,,,0.34,WUHU21636XXSP,2013-10-07 18:38:00,
2013-10-07 14:43:00,76.9,74.7,29.74,NE,45,0.0,0.0,93,0.35,,,0.34,WUHU21636XXSP,2013-10-07 18:43:00,
2013-10-07 14:48:00,77.3,75.1,29.74,NE,45,0.0,0.0,93,0.35,,,0.34,WUHU21636XXSP,2013-10-07 18:48:00,
2013-10-07 14:53:00,77.7,75.5,29.73,NE,45,0.0,0.0,93,0.35,,,0.34,WUHU21636XXSP,2013-10-07 18:53:00,
2013-10-07 14:58:00,78.0,75.8,29.73,NE,45,0.0,2.8,93,0.35,,,0.34,WUHU21636XXSP,2013-10-07 18:58:00,
2013-10-07 15:03:00,77.5,74.6,29.72,NW,315,3.0,3.5,91,0.14,,,0.34,WUHU21636XXSP,2013-10-07 19:03:00,
2013-10-07 15:08:00,77.5,75.0,29.72,NNE,22,0.0,3.5,92,0.14,,,0.34,WUHU21636XXSP,2013-10-07 19:08:00,
2013-10-07 15:13:00,77.9,75.4,29.72,NNE,22,0.0,3.1,92,0.14,,,0.34,WUHU21636XXSP,2013-10-07 19:13:00,
2013-10-07 15:18:00,78.5,76.0,29.73,North,0,0.0,1.6,92,0.14,,,0.34,WUHU21636XXSP,2013-10-07 19:18:00,
2013-10-07 15:23:00,78.9,76.4,29.73,NE,45,0.0,2.9,92,0.14,,,0.34,WUHU21636XXSP,2013-10-07 19:23:00,
2013-10-07 15:28:00,79.2,76.7,29.73,NE,45,0.0,2.9,92,0.14,,,0.34,WUHU21636XXSP,2013-10-07 19:28:00,
2013-10-07 15:33:00,79.7,77.2,29.73,NE,45,0.0,0.0,92,0.14,,,0.34,WUHU21636XXSP,2013-10-07 19:33:00,
2013-10-07 15:38:00,79.9,77.2,29.73,NE,45,0.0,0.0,92,0.14,,,0.34,WUHU21636XXSP,2013-10-07 19:38:00,
2013-10-07 15:43:00,79.9,77.2,29.72,NE,45,0.0,5.8,92,0.14,,,0.34,WUHU21636XXSP,2013-10-07 19:43:00,
2013-10-07 15:48:00,79.9,77.2,29.72,ENE,67,0.0,5.8,92,0.14,,,0.34,WUHU21636XXSP,2013-10-07 19:48:00,
2013-10-07 15:53:00,79.9,77.2,29.73,ENE,67,3.1,7.2,91,0.14,,,0.34,WUHU21636XXSP,2013-10-07 19:53:00,
2013-10-07 15:58:00,79.5,76.6,29.73,NE,45,0.0,7.2,91,0.14,,,0.34,WUHU21636XXSP,2013-10-07 19:58:00,
2013-10-07 16:03:00,79.5,76.6,29.73,NNE,22,0.0,6.6,91,0.00,,,0.34,WUHU21636XXSP,2013-10-07 20:03:00,
2013-10-07 16:08:00,79.5,76.6,29.72,NE,45,0.0,6.6,90,0.00,,,0.34,WUHU21636XXSP,2013-10-07 20:08:00,
2013-10-07 16:13:00,79.5,76.3,29.72,ENE,67,5.3,7.6,90,0.00,,,0.34,WUHU21636XXSP,2013-10-07 20:13:00,
2013-10-07 16:18:00,79.3,76.1,29.72,NE,45,0.0,7.6,90,0.00,,,0.34,WUHU21636XXSP,2013-10-07 20:18:00,
2013-10-07 16:23:00,79.3,76.1,29.72,North,0,0.0,5.6,90,0.00,,,0.34,WUHU21636XXSP,2013-10-07 20:23:00,
2013-10-07 16:28:00,79.3,76.1,29.72,North,0,0.0,0.0,90,0.00,,,0.34,WUHU21636XXSP,2013-10-07 20:28:00,
2013-10-07 16:33:00,79.3,76.1,29.72,ENE,67,0.0,4.3,91,0.00,,,0.34,WUHU21636XXSP,2013-10-07 20:33:00,
2013-10-07 16:38:00,79.3,76.1,29.72,East,90,0.0,5.6,90,0.00,,,0.34,WUHU21636XXSP,2013-10-07 20:38:00,
2013-10-07 16:43:00,79.3,76.1,29.73,ESE,112,0.0,5.6,90,0.00,,,0.34,WUHU21636XXSP,2013-10-07 20:43:00,
2013-10-07 16:48:00,79.3,76.1,29.73,ESE,112,0.0,4.5,90,0.00,,,0.34,WUHU21636XXSP,2013-10-07 20:48:00,
2013-10-07 16:53:00,79.2,75.9,29.73,West,270,0.0,2.3,90,0.00,,,0.34,WUHU21636XXSP,2013-10-07 20:53:00,
2013-10-07 16:58:00,78.6,75.7,29.73,West,270,0.0,2.3,91,0.00,,,0.34,WUHU21636XXSP,2013-10-07 20:58:00,
2013-10-07 17:03:00,78.4,75.6,29.73,West,270,0.0,1.5,91,0.00,,,0.34,WUHU21636XXSP,2013-10-07 21:03:00,
2013-10-07 17:08:00,78.4,75.6,29.74,West,270,0.0,1.5,92,0.00,,,0.34,WUHU21636XXSP,2013-10-07 21:08:00,
2013-10-07 17:13:00,77.9,75.4,29.74,SSE,157,0.0,0.0,92,0.00,,,0.34,WUHU21636XXSP,2013-10-07 21:13:00,
2013-10-07 17:18:00,77.7,75.2,29.73,East,90,0.0,0.0,92,0.00,,,0.34,WUHU21636XXSP,2013-10-07 21:18:00,
2013-10-07 17:23:00,77.7,75.2,29.73,ESE,112,0.0,0.0,92,0.00,,,0.34,WUHU21636XXSP,2013-10-07 21:23:00,
2013-10-07 17:28:00,77.7,75.2,29.73,ESE,112,0.0,0.0,93,0.00,,,0.34,WUHU21636XXSP,2013-10-07 21:28:00,
2013-10-07 17:33:00,77.5,75.4,29.73,ENE,67,0.0,3.0,93,0.00,,,0.34,WUHU21636XXSP,2013-10-07 21:33:00,
2013-10-07 17:38:00,77.5,75.4,29.73,NE,45,0.0,3.3,93,0.00,,,0.34,WUHU21636XXSP,2013-10-07 21:38:00,
2013-10-07 17:43:00,77.5,75.4,29.73,NE,45,0.0,3.3,93,0.00,,,0.34,WUHU21636XXSP,2013-10-07 21:43:00,
2013-10-07 17:48:00,77.5,75.4,29.73,ENE,67,0.0,3.9,92,0.00,,,0.34,WUHU21636XXSP,2013-10-07 21:48:00,
2013-10-07 17:53:00,77.7,75.2,29.73,ENE,67,0.0,3.9,92,0.00,,,0.34,WUHU21636XXSP,2013-10-07 21:53:00,
2013-10-07 17:58:00,77.7,75.2,29.73,ENE,67,0.0,0.0,92,0.00,,,0.34,WUHU21636XXSP,2013-10-07 21:58:00,
2013-10-07 18:03:00,77.7,75.2,29.73,ENE,67,0.0,1.5,92,0.00,,,0.34,WUHU21636XXSP,2013-10-07 22:03:00,
2013-10-07 18:08:00,77.7,75.2,29.73,NE,45,0.0,1.7,92,0.00,,,0.34,WUHU21636XXSP,2013-10-07 22:08:00,
2013-10-07 18:13:00,77.7,75.2,29.73,NE,45,0.0,1.7,92,0.00,,,0.34,WUHU21636XXSP,2013-10-07 22:13:00,
2013-10-07 18:18:00,77.9,75.4,29.73,NE,45,0.0,2.1,93,0.00,,,0.34,WUHU21636XXSP,2013-10-07 22:18:00,
2013-10-07 18:23:00,77.7,75.2,29.73,NE,45,0.0,3.9,92,0.00,,,0.34,WUHU21636XXSP,2013-10-07 22:23:00,
2013-10-07 18:28:00,77.7,75.2,29.73,ENE,67,0.0,3.9,93,0.00,,,0.34,WUHU21636XXSP,2013-10-07 22:28:00,
2013-10-07 18:33:00,77.7,75.6,29.72,ENE,67,0.0,0.0,93,0.00,,,0.34,WUHU21636XXSP,2013-10-07 22:33:00,
2013-10-07 18:38:00,77.5,75.4,29.72,ENE,67,0.0,0.0,93,0.00,,,0.34,WUHU21636XXSP,2013-10-07 22:38:00,
2013-10-07 18:43:00,77.4,75.2,29.72,ENE,67,0.0,0.0,93,0.00,,,0.34,WUHU21636XXSP,2013-10-07 22:43:00,
2013-10-07 18:49:00,77.2,75.2,29.72,ENE,67,0.0,0.0,94,0.00,,,0.34,WUHU21636XXSP,2013-10-07 22:49:00,
2013-10-07 18:54:00,77.2,75.2,29.73,ENE,67,0.0,0.0,94,0.00,,,0.34,WUHU21636XXSP,2013-10-07 22:54:00,
2013-10-07 18:59:00,76.8,74.7,29.73,ENE,67,0.0,0.0,93,0.00,,,0.34,WUHU21636XXSP,2013-10-07 22:59:00,
2013-10-07 19:04:00,76.6,74.5,29.73,ENE,67,0.0,0.0,93,0.00,,,0.34,WUHU21636XXSP,2013-10-07 23:04:00,
2013-10-07 19:08:00,76.6,74.5,29.74,ENE,67,0.0,0.0,94,0.00,,,0.34,WUHU21636XXSP,2013-10-07 23:08:00,
2013-10-07 19:14:00,76.6,74.5,29.75,ENE,67,0.0,0.0,94,0.00,,,0.34,WUHU21636XXSP,2013-10-07 23:14:00,
2013-10-07 19:19:00,76.6,74.5,29.75,ENE,67,0.0,0.0,94,0.00,,,0.34,WUHU21636XXSP,2013-10-07 23:19:00,
2013-10-07 19:24:00,76.6,74.5,29.75,ENE,67,0.0,0.0,94,0.00,,,0.34,WUHU21636XXSP,2013-10-07 23:24:00,
2013-10-07 19:29:00,76.6,74.5,29.75,ENE,67,0.0,0.0,94,0.00,,,0.34,WUHU21636XXSP,2013-10-07 23:29:00,
2013-10-07 19:33:00,76.6,74.5,29.75,ENE,67,0.0,0.0,94,0.00,,,0.34,WUHU21636XXSP,2013-10-07 23:33:00,
2013-10-07 19:38:00,76.6,74.5,29.75,ENE,67,0.0,0.0,94,0.00,,,0.34,WUHU21636XXSP,2013-10-07 23:38:00,
2013-10-07 19:43:00,76.6,74.5,29.75,ENE,67,0.0,0.0,94,0.00,,,0.34,WUHU21636XXSP,2013-10-07 23:43:00,
2013-10-07 19:48:00,76.6,74.5,29.75,ENE,67,0.0,0.0,94,0.00,,,0.34,WUHU21636XXSP,2013-10-07 23:48:00,
2013-10-07 19:53:00,76.8,74.8,29.76,ENE,67,0.0,0.0,94,0.00,,,0.34,WUHU21636XXSP,2013-10-07 23:53:00,
2013-10-07 19:58:00,76.8,74.8,29.76,ENE,67,0.0,2.5,94,0.00,,,0.34,WUHU21636XXSP,2013-10-07 23:58:00,
2013-10-07 20:03:00,76.8,74.8,29.76,North,0,0.0,2.5,94,0.00,,,0.34,WUHU21636XXSP,2013-10-08 00:03:00,
2013-10-07 20:08:00,76.8,74.8,29.76,ENE,67,0.0,3.0,94,0.00,,,0.34,WUHU21636XXSP,2013-10-08 00:08:00,
2013-10-07 20:13:00,76.8,74.8,29.76,NE,45,0.0,3.5,94,0.00,,,0.34,WUHU21636XXSP,2013-10-08 00:13:00,
2013-10-07 20:18:00,76.6,74.7,29.76,ENE,67,0.0,3.5,94,0.00,,,0.34,WUHU21636XXSP,2013-10-08 00:18:00,
2013-10-07 20:23:00,76.6,74.7,29.76,ENE,67,0.0,5.7,94,0.00,,,0.34,WUHU21636XXSP,2013-10-08 00:23:00,
2013-10-07 20:28:00,76.3,74.3,29.75,NNW,337,0.0,5.7,94,0.08,,,0.43,WUHU21636XXSP,2013-10-08 00:28:00,
2013-10-07 20:33:00,75.9,74.3,29.76,NNW,337,1.2,3.3,95,0.22,,,0.57,WUHU21636XXSP,2013-10-08 00:33:00,
2013-10-07 20:38:00,75.7,74.1,29.76,NE,45,0.0,1.8,95,0.39,,,0.73,WUHU21636XXSP,2013-10-08 00:38:00,
2013-10-07 20:43:00,75.7,74.1,29.76,NE,45,0.0,1.5,95,0.43,,,0.77,WUHU21636XXSP,2013-10-08 00:43:00,
2013-10-07 20:48:00,75.6,73.9,29.76,NE,45,0.0,0.0,95,0.43,,,0.77,WUHU21636XXSP,2013-10-08 00:48:00,
2013-10-07 20:53:00,75.6,73.9,29.76,NE,45,0.0,0.0,95,0.47,,,0.81,WUHU21636XXSP,2013-10-08 00:53:00,
2013-10-07 20:58:00,75.6,73.9,29.76,NE,45,0.0,2.0,95,0.47,,,0.81,WUHU21636XXSP,2013-10-08 00:58:00,
2013-10-07 21:03:00,75.6,73.9,29.76,ENE,67,0.0,2.4,95,0.47,,,0.81,WUHU21636XXSP,2013-10-08 01:03:00,
2013-10-07 21:08:00,75.6,73.9,29.76,ENE,67,0.0,2.4,95,0.47,,,0.81,WUHU21636XXSP,2013-10-08 01:08:00,
2013-10-07 21:13:00,75.6,73.9,29.76,ENE,67,0.0,0.0,95,0.47,,,0.81,WUHU21636XXSP,2013-10-08 01:13:00,
2013-10-07 21:18:00,75.4,73.8,29.77,ENE,67,0.0,0.0,95,0.47,,,0.81,WUHU21636XXSP,2013-10-08 01:18:00,
2013-10-07 21:23:00,75.4,73.8,29.77,ENE,67,0.0,0.0,95,0.47,,,0.81,WUHU21636XXSP,2013-10-08 01:23:00,
2013-10-07 21:28:00,75.4,73.8,29.77,ENE,67,0.0,0.0,95,0.47,,,0.81,WUHU21636XXSP,2013-10-08 01:28:00,
2013-10-07 21:33:00,75.4,73.8,29.78,ENE,67,0.0,0.0,95,0.47,,,0.81,WUHU21636XXSP,2013-10-08 01:33:00,
2013-10-07 21:38:00,75.4,73.8,29.78,ENE,67,0.0,0.0,95,0.47,,,0.81,WUHU21636XXSP,2013-10-08 01:38:00,
2013-10-07 21:44:00,75.2,73.6,29.78,ENE,67,0.0,0.0,95,0.47,,,0.81,WUHU21636XXSP,2013-10-08 01:44:00,
2013-10-07 21:48:00,75.2,73.6,29.78,ENE,67,0.0,0.0,95,0.47,,,0.81,WUHU21636XXSP,2013-10-08 01:48:00,
2013-10-07 21:53:00,75.2,73.6,29.78,ENE,67,0.0,2.8,95,0.47,,,0.81,WUHU21636XXSP,2013-10-08 01:53:00,
2013-10-07 21:58:00,75.0,73.4,29.78,ENE,67,0.0,3.8,95,0.00,,,0.81,WUHU21636XXSP,2013-10-08 01:58:00,
2013-10-07 22:03:00,75.0,73.4,29.78,ENE,67,0.0,3.8,95,0.00,,,0.81,WUHU21636XXSP,2013-10-08 02:03:00,
2013-10-07 22:08:00,75.2,73.6,29.79,NNE,22,0.0,3.2,95,0.00,,,0.81,WUHU21636XXSP,2013-10-08 02:08:00,
2013-10-07 22:13:00,75.2,73.6,29.78,NE,45,0.0,1.1,95,0.00,,,0.81,WUHU21636XXSP,2013-10-08 02:13:00,
2013-10-07 22:18:00,75.0,73.4,29.79,NE,45,0.0,2.9,95,0.00,,,0.81,WUHU21636XXSP,2013-10-08 02:18:00,
2013-10-07 22:23:00,75.0,73.4,29.78,NE,45,0.0,3.9,95,0.00,,,0.81,WUHU21636XXSP,2013-10-08 02:23:00,
2013-10-07 22:28:00,74.8,73.2,29.78,NE,45,0.0,3.9,95,0.00,,,0.81,WUHU21636XXSP,2013-10-08 02:28:00,
2013-10-07 22:33:00,74.8,73.2,29.78,NE,45,0.0,2.6,95,0.00,,,0.81,WUHU21636XXSP,2013-10-08 02:33:00,
2013-10-07 22:38:00,74.8,73.2,29.78,East,90,0.0,0.0,95,0.00,,,0.81,WUHU21636XXSP,2013-10-08 02:38:00,
2013-10-07 22:43:00,74.8,73.2,29.78,East,90,0.0,0.0,95,0.00,,,0.81,WUHU21636XXSP,2013-10-08 02:43:00,
2013-10-07 22:48:00,74.8,73.2,29.78,East,90,0.0,0.0,95,0.00,,,0.81,WUHU21636XXSP,2013-10-08 02:48:00,
2013-10-07 22:53:00,74.5,72.9,29.78,East,90,0.0,0.0,95,0.00,,,0.81,WUHU21636XXSP,2013-10-08 02:53:00,
2013-10-07 22:58:00,74.7,73.0,29.78,East,90,0.0,0.0,95,0.00,,,0.81,WUHU21636XXSP,2013-10-08 02:58:00,
2013-10-07 23:03:00,74.7,73.0,29.78,East,90,0.0,0.0,95,0.00,,,0.81,WUHU21636XXSP,2013-10-08 03:03:00,
2013-10-07 23:08:00,74.5,72.9,29.78,East,90,0.0,0.0,95,0.00,,,0.81,WUHU21636XXSP,2013-10-08 03:08:00,
2013-10-07 23:13:00,74.5,72.9,29.78,East,90,0.0,0.0,95,0.00,,,0.81,WUHU21636XXSP,2013-10-08 03:13:00,
2013-10-07 23:18:00,74.5,72.9,29.78,East,90,0.0,0.0,95,0.00,,,0.81,WUHU21636XXSP,2013-10-08 03:18:00,
2013-10-07 23:23:00,74.5,72.9,29.78,East,90,0.0,0.0,95,0.00,,,0.81,WUHU21636XXSP,2013-10-08 03:23:00,
2013-10-07 23:28:00,74.5,72.9,29.78,East,90,0.0,0.0,95,0.00,,,0.81,WUHU21636XXSP,2013-10-08 03:28:00,
2013-10-07 23:33:00,74.5,72.9,29.78,East,90,0.0,0.0,95,0.00,,,0.81,WUHU21636XXSP,2013-10-08 03:33:00,
2013-10-07 23:38:00,74.3,72.7,29.78,NE,45,0.0,0.0,95,0.00,,,0.81,WUHU21636XXSP,2013-10-08 03:38:00,
2013-10-07 23:43:00,74.3,72.7,29.78,NE,45,0.0,0.0,95,0.00,,,0.81,WUHU21636XXSP,2013-10-08 03:43:00,
2013-10-07 23:48:00,74.5,72.9,29.78,NE,45,0.0,0.0,95,0.00,,,0.81,WUHU21636XXSP,2013-10-08 03:48:00,
2013-10-07 23:53:00,74.3,72.7,29.78,NE,45,0.0,0.0,95,0.00,,,0.81,WUHU21636XXSP,2013-10-08 03:53:00,
2013-10-07 23:58:00,74.1,72.5,29.78,NE,45,0.0,0.0,95,0.00,,,0.81,WUHU21636XXSP,2013-10-08 03:58:00,